Baraboo, WI

2:20 PM CST on February 17, 2018 (GMT -0600)
Baraboo Wisconsin Dells

Weather History for KDLL - January, 2014

Change the Weather History Date:

Thursday, January 30, 2014

  Actual Average Record
Temperature  
Mean Temperature 21 °F -  
Max Temperature 30 °F 26 °F 49 °F (1988)
Min Temperature 11 °F 6 °F -45 °F (1951)
Degree Days  
Heating Degree Days 44    
Moisture  
Dew Point 15 °F    
Average Humidity 68    
Maximum Humidity 90    
Minimum Humidity 52    
Precipitation  
Precipitation 0.00 in - - ()
Sea Level Pressure  
Sea Level Pressure 29.65 in    
Wind  
Wind Speed 17 mph (SW)    
Max Wind Speed 24 mph    
Max Gust Speed 31 mph    
Visibility 9 miles    
Events Snow    
Averages and records for this station are not official NWS values.
T = Trace of Precipitation, MM = Missing Value Source: NWS Daily Summary

Daily Weather History Graph

Daily Weather History Graph

Search for Another Location

Airport or City:

Trip Planner

Search our weather history database for the weather conditions in past years. The results will help you decide how hot, cold, wet, or windy it might be!

Date:

Astronomy

Jan. 30, 2014 Rise Set
Actual Time 7:17 AM CST 5:07 PM CST
Civil Twilight 6:46 AM CST 5:38 PM CST
Nautical Twilight 6:12 AM CST 6:12 PM CST
Astronomical Twilight 5:38 AM CST 6:46 PM CST
Moon 6:42 AM CST (1/30) 5:21 PM CST (1/30)
Length of Visible Light 10h 51m
Length of Day
9h 50m
Waning Crescent, 0% of the Moon is Illuminated
Jan 30
Waning Crescent
Jan 30
New
Feb 6
First Quarter
Feb 14
Full
Feb 22
Last Quarter

Hourly Weather History & Observations

Time (CST) Temp. Windchill Dew Point Humidity Pressure Visibility Wind Dir Wind Speed Gust Speed Precip Events Conditions
12:15 AM 24.6 °F 10.1 °F 10.2 °F 54% 29.72 in 10.0 mi SSW 20.7 mph 31.1 mph N/A   Overcast
12:35 AM 25.0 °F 9.9 °F 10.6 °F 54% 29.72 in 10.0 mi SSW 23.0 mph 28.8 mph N/A   Overcast
12:55 AM 25.2 °F 9.8 °F 10.4 °F 54% 29.71 in 10.0 mi SSW 24.2 mph 29.9 mph N/A   Overcast
1:15 AM 25.3 °F 10.7 °F 10.4 °F 53% 29.70 in 10.0 mi SSW 21.9 mph 28.8 mph N/A   Overcast
1:35 AM 25.2 °F 10.4 °F 10.6 °F 54% 29.69 in 10.0 mi SSW 21.9 mph 29.9 mph N/A   Overcast
1:55 AM 25.7 °F 11.2 °F 10.4 °F 52% 29.68 in 10.0 mi SSW 21.9 mph 29.9 mph N/A   Scattered Clouds
2:15 AM 25.7 °F 11.5 °F 10.6 °F 53% 29.67 in 10.0 mi SSW 20.7 mph 29.9 mph N/A   Mostly Cloudy
2:35 AM 25.7 °F 11.9 °F 10.9 °F 54% 29.67 in 10.0 mi SSW 19.6 mph 25.3 mph N/A   Mostly Cloudy
2:55 AM 25.7 °F 11.9 °F 10.8 °F 53% 29.65 in 10.0 mi SSW 19.6 mph 25.3 mph N/A   Scattered Clouds
3:15 AM 25.7 °F 12.3 °F 10.6 °F 53% 29.65 in 10.0 mi SSW 18.4 mph 24.2 mph N/A   Clear
3:35 AM 25.7 °F 13.1 °F 10.8 °F 53% 29.64 in 10.0 mi South 16.1 mph 23.0 mph N/A   Clear
3:55 AM 26.2 °F 13.4 °F 10.9 °F 52% 29.64 in 10.0 mi SSW 17.3 mph 23.0 mph N/A   Clear
4:15 AM 26.2 °F 14.2 °F 10.9 °F 52% 29.64 in 10.0 mi SSW 15.0 mph 23.0 mph N/A   Scattered Clouds
4:35 AM 26.2 °F 14.7 °F 11.3 °F 53% 29.63 in 10.0 mi SSW 13.8 mph 24.2 mph N/A   Mostly Cloudy
4:55 AM 26.6 °F 15.2 °F 11.3 °F 53% 29.63 in 10.0 mi SSW 13.8 mph 20.7 mph N/A   Mostly Cloudy
5:15 AM 26.6 °F 15.7 °F 11.7 °F 53% 29.62 in 10.0 mi SSW 12.7 mph 23.0 mph N/A   Mostly Cloudy
5:35 AM 26.8 °F 12.9 °F 11.7 °F 53% 29.60 in 10.0 mi SSW 20.7 mph - N/A   Overcast
5:55 AM 26.6 °F 12.7 °F 12.2 °F 55% 29.59 in 10.0 mi SSW 20.7 mph 26.5 mph N/A   Overcast
6:15 AM 26.8 °F 12.9 °F 12.4 °F 55% 29.59 in 10.0 mi SSW 20.7 mph 28.8 mph N/A   Overcast
6:35 AM 26.8 °F 12.9 °F 12.7 °F 56% 29.58 in 10.0 mi SSW 20.7 mph 26.5 mph N/A   Overcast
6:55 AM 26.6 °F 12.7 °F 12.6 °F 55% 29.57 in 10.0 mi SSW 20.7 mph 29.9 mph N/A   Mostly Cloudy
7:15 AM - - - N/A% 29.58 in - SSW 18.4 mph - N/A   Unknown
7:35 AM 27.1 °F 12.7 °F 12.7 °F 55% 29.57 in 10.0 mi SSW 23.0 mph 28.8 mph N/A   Overcast
7:55 AM 27.5 °F 15.0 °F 12.7 °F 54% 29.57 in 10.0 mi SSW 17.3 mph 25.3 mph N/A   Overcast
8:15 AM 27.5 °F 14.2 °F 12.9 °F 54% 29.56 in 10.0 mi SSW 19.6 mph 31.1 mph N/A   Overcast
8:35 AM 27.7 °F 15.6 °F 13.3 °F 55% 29.55 in 10.0 mi South 16.1 mph 26.5 mph N/A   Overcast
8:55 AM 25.7 °F 12.3 °F 16.0 °F 67% 29.54 in 7.0 mi South 18.4 mph 23.0 mph N/A Snow Light Snow
9:15 AM 24.6 °F 11.3 °F 18.3 °F 77% 29.54 in 7.0 mi South 17.3 mph - N/A Snow Light Snow
9:35 AM 25.2 °F 14.4 °F 18.3 °F 75% 29.56 in 5.0 mi South 11.5 mph 17.3 mph N/A   Haze
9:55 AM 26.1 °F 16.8 °F 16.3 °F 67% 29.57 in 10.0 mi SSW 9.2 mph - N/A   Overcast
10:15 AM 27.1 °F 17.5 °F 15.4 °F 61% 29.56 in 7.0 mi SSW 10.4 mph 18.4 mph N/A   Overcast
10:35 AM 27.7 °F 17.6 °F 14.4 °F 57% 29.56 in 10.0 mi South 11.5 mph 16.1 mph N/A   Overcast
10:55 AM 25.9 °F 13.3 °F 19.0 °F 75% 29.55 in 1.0 mi SSW 16.1 mph 27.6 mph N/A Snow Light Snow
11:15 AM 24.6 °F 13.2 °F 21.6 °F 88% 29.55 in 0.2 mi SSW 12.7 mph - N/A Snow Snow
11:35 AM 24.6 °F 13.2 °F 22.1 °F 90% 29.54 in 0.5 mi SSW 12.7 mph - N/A Snow Snow
11:55 AM 25.2 °F 13.3 °F 22.5 °F 89% 29.52 in 0.5 mi SSW 13.8 mph 19.6 mph N/A Snow Light Snow
12:15 PM 26.1 °F 15.6 °F 21.9 °F 84% 29.51 in 2.0 mi SSW 11.5 mph 19.6 mph N/A Snow Light Snow
12:35 PM 26.4 °F 16.0 °F 21.9 °F 83% 29.50 in 1.8 mi SSW 11.5 mph 17.3 mph N/A Snow Light Snow
12:55 PM 27.0 °F 16.1 °F 21.9 °F 81% 29.49 in 2.5 mi SSW 12.7 mph 19.6 mph N/A Snow Light Snow
1:15 PM 26.8 °F 15.4 °F 21.9 °F 82% 29.48 in 7.0 mi SSW 13.8 mph 20.7 mph N/A   Overcast
1:35 PM 27.0 °F 16.1 °F 22.6 °F 84% 29.49 in 1.2 mi SW 12.7 mph 17.3 mph N/A Snow Light Snow
1:55 PM 27.5 °F 16.8 °F 23.0 °F 83% 29.49 in 4.0 mi SW 12.7 mph - N/A   Overcast
2:15 PM 27.7 °F 17.6 °F 23.5 °F 84% 29.50 in 10.0 mi SW 11.5 mph 18.4 mph N/A   Overcast
2:35 PM 28.2 °F 16.8 °F 23.5 °F 83% 29.50 in 10.0 mi SW 15.0 mph - N/A   Overcast
2:55 PM 28.4 °F 17.5 °F 23.7 °F 83% 29.52 in 10.0 mi SW 13.8 mph 18.4 mph N/A   Overcast
3:15 PM 28.9 °F 18.6 °F 24.1 °F 82% 29.53 in 10.0 mi SW 12.7 mph 18.4 mph N/A   Overcast
3:35 PM 29.3 °F 20.2 °F 24.6 °F 83% 29.55 in 10.0 mi SW 10.4 mph - N/A   Overcast
3:55 PM 29.5 °F 20.4 °F 24.8 °F 83% 29.56 in 10.0 mi WSW 10.4 mph - N/A   Overcast
4:15 PM 29.8 °F 23.9 °F 25.2 °F 83% 29.57 in 10.0 mi WSW 5.8 mph - N/A   Overcast
4:35 PM 30.2 °F 22.6 °F 25.2 °F 82% 29.59 in 10.0 mi WSW 8.1 mph - N/A   Overcast
4:55 PM 30.2 °F 22.6 °F 24.8 °F 80% 29.61 in 10.0 mi WNW 8.1 mph - N/A   Overcast
5:15 PM 30.0 °F 19.5 °F 22.1 °F 72% 29.63 in 10.0 mi NW 13.8 mph 17.3 mph N/A   Overcast
5:35 PM 29.7 °F 19.1 °F 21.6 °F 72% 29.65 in 10.0 mi WNW 13.8 mph 18.4 mph N/A   Overcast
5:55 PM 29.1 °F 16.7 °F 20.1 °F 69% 29.67 in 10.0 mi WNW 18.4 mph 25.3 mph N/A   Overcast
6:15 PM 26.8 °F 14.9 °F 19.6 °F 74% 29.69 in 10.0 mi WNW 15.0 mph 23.0 mph N/A   Overcast
6:35 PM 25.5 °F 13.8 °F 19.0 °F 76% 29.71 in 10.0 mi NW 13.8 mph 20.7 mph N/A   Overcast
6:55 PM 24.4 °F 14.2 °F 18.1 °F 77% 29.72 in 10.0 mi NW 10.4 mph - N/A   Overcast
7:15 PM 23.0 °F 12.4 °F 16.5 °F 76% 29.74 in 10.0 mi WNW 10.4 mph - N/A   Overcast
7:35 PM 22.3 °F 12.2 °F 15.8 °F 76% 29.76 in 10.0 mi WNW 9.2 mph - N/A   Overcast
7:55 PM 20.7 °F 8.2 °F 13.6 °F 74% 29.77 in 10.0 mi NNW 12.7 mph 20.7 mph N/A   Mostly Cloudy
8:15 PM 19.9 °F 6.7 °F 13.1 °F 75% 29.79 in 10.0 mi NW 13.8 mph 17.3 mph N/A   Overcast
8:35 PM 19.2 °F 9.3 °F 12.0 °F 74% 29.81 in 10.0 mi NW 8.1 mph 16.1 mph N/A   Overcast
8:55 PM 17.8 °F 7.5 °F 10.0 °F 72% 29.82 in 10.0 mi NW 8.1 mph - N/A   Scattered Clouds
9:15 PM 16.7 °F 3.2 °F 9.5 °F 73% 29.84 in 10.0 mi WNW 12.7 mph 16.1 mph N/A   Clear
9:35 PM 15.8 °F 5.1 °F 7.7 °F 70% 29.85 in 10.0 mi NW 8.1 mph - N/A   Clear
9:55 PM 15.4 °F 6.8 °F 6.4 °F 68% 29.87 in 10.0 mi NW 5.8 mph - N/A   Clear
10:15 PM 14.4 °F 5.5 °F 5.9 °F 69% 29.88 in 10.0 mi WNW 5.8 mph - N/A   Clear
10:35 PM 14.0 °F 5.1 °F 5.0 °F 67% 29.89 in 10.0 mi WNW 5.8 mph - N/A   Clear
10:55 PM 13.5 °F 2.2 °F 4.8 °F 68% 29.90 in 10.0 mi WNW 8.1 mph - N/A   Clear
11:15 PM 12.7 °F 2.4 °F 3.9 °F 68% 29.92 in 10.0 mi West 6.9 mph - N/A   Clear
11:35 PM 12.6 °F 3.4 °F 2.8 °F 65% 29.92 in 10.0 mi WNW 5.8 mph - N/A   Clear
11:55 PM 11.3 °F 1.9 °F 2.1 °F 67% 29.92 in 10.0 mi WNW 5.8 mph - N/A   Clear